owner,sensor,date,latitude,longitude,sea_surface_height_above_sea_level,qcFlag 
COMPS,ioos:station:USF.COMPS:ANC:1,2010-09-01T00:00:00Z,28.1930,-82.7890,0.021,1111122 
COMPS,ioos:station:USF.COMPS:ANC:1,2010-09-01T00:06:00Z,28.1930,-82.7890,0.017,1111122 
COMPS,ioos:station:USF.COMPS:ANC:1,2010-09-01T00:12:00Z,28.1930,-82.7890,0.015,1111122 
COMPS,ioos:station:USF.COMPS:ANC:1,2010-09-01T00:18:00Z,28.1930,-82.7890,0.01,1111122 
COMPS,ioos:station:USF.COMPS:ANC:1,2010-09-01T00:24:00Z,28.1930,-82.7890,0.006,1111122 
COMPS,ioos:station:USF.COMPS:ANC:1,2010-09-01T00:30:00Z,28.1930,-82.7890,0.005,1111122 
COMPS,ioos:station:USF.COMPS:ANC:1,2010-09-01T00:36:00Z,28.1930,-82.7890,-0.001,1111122 
COMPS,ioos:station:USF.COMPS:ANC:1,2010-09-01T00:42:00Z,28.1930,-82.7890,-0.015,1111122 
COMPS,ioos:station:USF.COMPS:ANC:1,2010-09-01T00:48:00Z,28.1930,-82.7890,-0.029,1111122 
COMPS,ioos:station:USF.COMPS:ANC:1,2010-09-01T00:54:00Z,28.1930,-82.7890,-0.041,1111122 
COMPS,ioos:station:USF.COMPS:ANC:1,2010-09-01T01:00:00Z,28.1930,-82.7890,-0.054,1111122 
COMPS,ioos:station:USF.COMPS:ANC:1,2010-09-01T01:06:00Z,28.1930,-82.7890,-0.064,1111122 
COMPS,ioos:station:USF.COMPS:ANC:1,2010-09-01T01:12:00Z,28.1930,-82.7890,-0.079,1111122 
COMPS,ioos:station:USF.COMPS:ANC:1,2010-09-01T01:18:00Z,28.1930,-82.7890,-0.088,1111122 
COMPS,ioos:station:USF.COMPS:ANC:1,2010-09-01T01:24:00Z,28.1930,-82.7890,-0.101,1111122 
COMPS,ioos:station:USF.COMPS:ANC:1,2010-09-01T01:30:00Z,28.1930,-82.7890,-0.112,1111122 
COMPS,ioos:station:USF.COMPS:ANC:1,2010-09-01T01:36:00Z,28.1930,-82.7890,-0.125,1111122 
COMPS,ioos:station:USF.COMPS:ANC:1,2010-09-01T01:42:00Z,28.1930,-82.7890,-0.132,1111122 
COMPS,ioos:station:USF.COMPS:ANC:1,2010-09-01T01:48:00Z,28.1930,-82.7890,-0.135,1111122 
COMPS,ioos:station:USF.COMPS:ANC:1,2010-09-01T01:54:00Z,28.1930,-82.7890,-0.138,1111122 
COMPS,ioos:station:USF.COMPS:ANC:1,2010-09-01T16:00:00Z,28.1930,-82.7890,-0.369,1111122 
COMPS,ioos:station:USF.COMPS:ANC:1,2010-09-01T16:06:00Z,28.1930,-82.7890,-0.365,1111122 
COMPS,ioos:station:USF.COMPS:ANC:1,2010-09-01T16:12:00Z,28.1930,-82.7890,-0.368,1111122 
COMPS,ioos:station:USF.COMPS:ANC:1,2010-09-01T16:18:00Z,28.1930,-82.7890,-0.371,1111122 
COMPS,ioos:station:USF.COMPS:ANC:1,2010-09-01T16:24:00Z,28.1930,-82.7890,-0.377,1111122 
COMPS,ioos:station:USF.COMPS:ANC:1,2010-09-01T16:30:00Z,28.1930,-82.7890,-0.384,1111122 
COMPS,ioos:station:USF.COMPS:ANC:1,2010-09-01T16:36:00Z,28.1930,-82.7890,-0.392,1111122 
COMPS,ioos:station:USF.COMPS:ANC:1,2010-09-01T16:42:00Z,28.1930,-82.7890,-0.394,1111122 
COMPS,ioos:station:USF.COMPS:ANC:1,2010-09-01T16:48:00Z,28.1930,-82.7890,-0.39,1111122 
COMPS,ioos:station:USF.COMPS:ANC:1,2010-09-01T16:54:00Z,28.1930,-82.7890,-0.39,1111122 
COMPS,ioos:station:USF.COMPS:ANC:1,2010-09-01T17:00:00Z,28.1930,-82.7890,-0.372,1111122 
COMPS,ioos:station:USF.COMPS:ANC:1,2010-09-01T17:06:00Z,28.1930,-82.7890,-0.374,1111122 
COMPS,ioos:station:USF.COMPS:ANC:1,2010-09-01T17:12:00Z,28.1930,-82.7890,-0.372,1111122 
COMPS,ioos:station:USF.COMPS:ANC:1,2010-09-01T17:18:00Z,28.1930,-82.7890,-0.368,1111122 
COMPS,ioos:station:USF.COMPS:ANC:1,2010-09-01T17:24:00Z,28.1930,-82.7890,-0.372,1111122 
COMPS,ioos:station:USF.COMPS:ANC:1,2010-09-01T17:30:00Z,28.1930,-82.7890,-0.372,1111122 
COMPS,ioos:station:USF.COMPS:ANC:1,2010-09-01T17:36:00Z,28.1930,-82.7890,-0.359,1111122 
COMPS,ioos:station:USF.COMPS:ANC:1,2010-09-01T17:42:00Z,28.1930,-82.7890,-0.346,1111122 
COMPS,ioos:station:USF.COMPS:ANC:1,2010-09-01T17:48:00Z,28.1930,-82.7890,-0.342,1111122 
COMPS,ioos:station:USF.COMPS:ANC:1,2010-09-01T17:54:00Z,28.1930,-82.7890,-0.349,1111122 
COMPS,ioos:station:USF.COMPS:ANC:1,2010-09-01T18:00:00Z,28.1930,-82.7890,-0.355,1111122 
COMPS,ioos:station:USF.COMPS:ANC:1,2010-09-01T18:06:00Z,28.1930,-82.7890,-0.343,1111122 
COMPS,ioos:station:USF.COMPS:ANC:1,2010-09-01T18:12:00Z,28.1930,-82.7890,-0.322,1111122 
COMPS,ioos:station:USF.COMPS:ANC:1,2010-09-01T18:18:00Z,28.1930,-82.7890,-0.312,1111122 
COMPS,ioos:station:USF.COMPS:ANC:1,2010-09-01T18:24:00Z,28.1930,-82.7890,-0.3,1111122 
COMPS,ioos:station:USF.COMPS:ANC:1,2010-09-01T18:30:00Z,28.1930,-82.7890,-0.29,1111122 
COMPS,ioos:station:USF.COMPS:ANC:1,2010-09-01T18:36:00Z,28.1930,-82.7890,-0.281,1111122 
COMPS,ioos:station:USF.COMPS:ANC:1,2010-09-01T18:42:00Z,28.1930,-82.7890,-0.263,1111122 
COMPS,ioos:station:USF.COMPS:ANC:1,2010-09-01T18:48:00Z,28.1930,-82.7890,-0.245,1111122 
COMPS,ioos:station:USF.COMPS:ANC:1,2010-09-01T18:54:00Z,28.1930,-82.7890,-0.239,1111122 
COMPS,ioos:station:USF.COMPS:ANC:1,2010-09-01T19:00:00Z,28.1930,-82.7890,-0.236,1111122 
COMPS,ioos:station:USF.COMPS:ANC:1,2010-09-01T19:06:00Z,28.1930,-82.7890,-0.219,1111122 
COMPS,ioos:station:USF.COMPS:ANC:1,2010-09-01T19:12:00Z,28.1930,-82.7890,-0.203,1111122 
COMPS,ioos:station:USF.COMPS:ANC:1,2010-09-01T19:18:00Z,28.1930,-82.7890,-0.193,1111122 
COMPS,ioos:station:USF.COMPS:ANC:1,2010-09-01T19:24:00Z,28.1930,-82.7890,-0.174,1111122 
COMPS,ioos:station:USF.COMPS:ANC:1,2010-09-01T19:30:00Z,28.1930,-82.7890,-0.159,1111122 
COMPS,ioos:station:USF.COMPS:ANC:1,2010-09-01T19:36:00Z,28.1930,-82.7890,-0.138,1111122 
COMPS,ioos:station:USF.COMPS:ANC:1,2010-09-01T19:42:00Z,28.1930,-82.7890,-0.144,1111122 
COMPS,ioos:station:USF.COMPS:ANC:1,2010-09-01T19:48:00Z,28.1930,-82.7890,-0.132,1111122 
COMPS,ioos:station:USF.COMPS:ANC:1,2010-09-01T19:54:00Z,28.1930,-82.7890,-0.122,1111122 
COMPS,ioos:station:USF.COMPS:ANC:1,2010-09-01T20:00:00Z,28.1930,-82.7890,-0.115,1111122 
COMPS,ioos:station:USF.COMPS:ANC:1,2010-09-01T20:06:00Z,28.1930,-82.7890,-0.105,1111122 
COMPS,ioos:station:USF.COMPS:ANC:1,2010-09-01T20:12:00Z,28.1930,-82.7890,-0.09,1111122 
COMPS,ioos:station:USF.COMPS:ANC:1,2010-09-01T20:18:00Z,28.1930,-82.7890,-0.082,1111122 
COMPS,ioos:station:USF.COMPS:ANC:1,2010-09-01T20:24:00Z,28.1930,-82.7890,-0.068,1111122 
COMPS,ioos:station:USF.COMPS:ANC:1,2010-09-01T20:30:00Z,28.1930,-82.7890,-0.049,1111122 
COMPS,ioos:station:USF.COMPS:ANC:1,2010-09-01T20:36:00Z,28.1930,-82.7890,-0.039,1111122 
COMPS,ioos:station:USF.COMPS:ANC:1,2010-09-01T20:42:00Z,28.1930,-82.7890,-0.032,1111122 
COMPS,ioos:station:USF.COMPS:ANC:1,2010-09-01T20:48:00Z,28.1930,-82.7890,-0.021,1111122 
COMPS,ioos:station:USF.COMPS:ANC:1,2010-09-01T20:54:00Z,28.1930,-82.7890,-0.011,1111122 
COMPS,ioos:station:USF.COMPS:ANC:1,2010-09-01T21:00:00Z,28.1930,-82.7890,-0.005,1111122 
COMPS,ioos:station:USF.COMPS:ANC:1,2010-09-01T21:06:00Z,28.1930,-82.7890,0.002,1111122 
COMPS,ioos:station:USF.COMPS:ANC:1,2010-09-01T21:12:00Z,28.1930,-82.7890,-0.001,1111122 
COMPS,ioos:station:USF.COMPS:ANC:1,2010-09-01T21:18:00Z,28.1930,-82.7890,-0.004,1111122 
COMPS,ioos:station:USF.COMPS:ANC:1,2010-09-01T21:24:00Z,28.1930,-82.7890,0.003,1111122 
COMPS,ioos:station:USF.COMPS:ANC:1,2010-09-01T21:30:00Z,28.1930,-82.7890,0.015,1111122 
COMPS,ioos:station:USF.COMPS:ANC:1,2010-09-01T21:36:00Z,28.1930,-82.7890,0.025,1111122 
COMPS,ioos:station:USF.COMPS:ANC:1,2010-09-01T21:42:00Z,28.1930,-82.7890,0.031,1111122 
COMPS,ioos:station:USF.COMPS:ANC:1,2010-09-01T21:48:00Z,28.1930,-82.7890,0.044,1111122 
COMPS,ioos:station:USF.COMPS:ANC:1,2010-09-01T21:54:00Z,28.1930,-82.7890,0.046,1111122 
COMPS,ioos:station:USF.COMPS:ANC:1,2010-09-01T22:00:00Z,28.1930,-82.7890,0.047,1111122 
COMPS,ioos:station:USF.COMPS:ANC:1,2010-09-01T22:06:00Z,28.1930,-82.7890,0.058,1111122 
COMPS,ioos:station:USF.COMPS:ANC:1,2010-09-01T22:12:00Z,28.1930,-82.7890,0.056,1111122 
COMPS,ioos:station:USF.COMPS:ANC:1,2010-09-01T22:18:00Z,28.1930,-82.7890,0.048,1111122 
COMPS,ioos:station:USF.COMPS:ANC:1,2010-09-01T22:24:00Z,28.1930,-82.7890,0.057,1111122 
COMPS,ioos:station:USF.COMPS:ANC:1,2010-09-01T22:30:00Z,28.1930,-82.7890,0.065,1111122 
COMPS,ioos:station:USF.COMPS:ANC:1,2010-09-01T22:36:00Z,28.1930,-82.7890,0.064,1111122 
COMPS,ioos:station:USF.COMPS:ANC:1,2010-09-01T22:42:00Z,28.1930,-82.7890,0.058,1111122 
COMPS,ioos:station:USF.COMPS:ANC:1,2010-09-01T22:48:00Z,28.1930,-82.7890,0.071,1111122 
COMPS,ioos:station:USF.COMPS:ANC:1,2010-09-01T22:54:00Z,28.1930,-82.7890,0.073,1111122 
COMPS,ioos:station:USF.COMPS:ANC:1,2010-09-01T23:00:00Z,28.1930,-82.7890,0.066,1111122 
COMPS,ioos:station:USF.COMPS:ANC:1,2010-09-01T23:06:00Z,28.1930,-82.7890,0.064,1111122 
COMPS,ioos:station:USF.COMPS:ANC:1,2010-09-01T23:12:00Z,28.1930,-82.7890,0.061,1111122 
COMPS,ioos:station:USF.COMPS:ANC:1,2010-09-01T23:18:00Z,28.1930,-82.7890,0.063,1111122 
COMPS,ioos:station:USF.COMPS:ANC:1,2010-09-01T23:24:00Z,28.1930,-82.7890,0.072,1111122 
COMPS,ioos:station:USF.COMPS:ANC:1,2010-09-01T23:30:00Z,28.1930,-82.7890,0.076,1111122 
COMPS,ioos:station:USF.COMPS:ANC:1,2010-09-01T23:36:00Z,28.1930,-82.7890,0.068,1111122 
COMPS,ioos:station:USF.COMPS:ANC:1,2010-09-01T23:42:00Z,28.1930,-82.7890,0.064,1111122 
COMPS,ioos:station:USF.COMPS:ANC:1,2010-09-01T23:48:00Z,28.1930,-82.7890,0.067,1111122 
COMPS,ioos:station:USF.COMPS:ANC:1,2010-09-01T23:54:00Z,28.1930,-82.7890,0.071,1111122 
COMPS,ioos:station:USF.COMPS:ANC:1,2010-09-02T00:00:00Z,28.1930,-82.7890,0.076,1111122 
COMPS,ioos:station:USF.COMPS:ANC:1,2010-09-02T00:06:00Z,28.1930,-82.7890,0.077,1111122 
COMPS,ioos:station:USF.COMPS:ANC:1,2010-09-02T00:12:00Z,28.1930,-82.7890,0.07,1111122 
COMPS,ioos:station:USF.COMPS:ANC:1,2010-09-02T00:18:00Z,28.1930,-82.7890,0.062,1111122 
COMPS,ioos:station:USF.COMPS:ANC:1,2010-09-02T00:24:00Z,28.1930,-82.7890,0.058,1111122 
COMPS,ioos:station:USF.COMPS:ANC:1,2010-09-02T00:30:00Z,28.1930,-82.7890,0.059,1111122 
COMPS,ioos:station:USF.COMPS:ANC:1,2010-09-02T00:36:00Z,28.1930,-82.7890,0.065,1111122 
COMPS,ioos:station:USF.COMPS:ANC:1,2010-09-02T00:42:00Z,28.1930,-82.7890,0.07,1111122 
COMPS,ioos:station:USF.COMPS:ANC:1,2010-09-02T00:48:00Z,28.1930,-82.7890,0.06,1111122 
COMPS,ioos:station:USF.COMPS:ANC:1,2010-09-02T00:54:00Z,28.1930,-82.7890,0.049,1111122 
COMPS,ioos:station:USF.COMPS:ANC:1,2010-09-02T01:00:00Z,28.1930,-82.7890,0.05,1111122 
COMPS,ioos:station:USF.COMPS:ANC:1,2010-09-02T01:06:00Z,28.1930,-82.7890,0.046,1111122 
COMPS,ioos:station:USF.COMPS:ANC:1,2010-09-02T01:12:00Z,28.1930,-82.7890,0.034,1111122 
COMPS,ioos:station:USF.COMPS:ANC:1,2010-09-02T01:18:00Z,28.1930,-82.7890,0.038,1111122 
COMPS,ioos:station:USF.COMPS:ANC:1,2010-09-02T01:24:00Z,28.1930,-82.7890,0.042,1111122 
COMPS,ioos:station:USF.COMPS:ANC:1,2010-09-02T01:30:00Z,28.1930,-82.7890,0.038,1111122 
COMPS,ioos:station:USF.COMPS:ANC:1,2010-09-02T01:36:00Z,28.1930,-82.7890,0.029,1111122 
COMPS,ioos:station:USF.COMPS:ANC:1,2010-09-02T01:42:00Z,28.1930,-82.7890,0.02,1111122 
COMPS,ioos:station:USF.COMPS:ANC:1,2010-09-02T01:48:00Z,28.1930,-82.7890,0.016,1111122 
COMPS,ioos:station:USF.COMPS:ANC:1,2010-09-02T01:54:00Z,28.1930,-82.7890,0.015,1111122 
COMPS,ioos:station:USF.COMPS:ANC:1,2010-09-02T02:00:00Z,28.1930,-82.7890,0.01,1111122 
COMPS,ioos:station:USF.COMPS:ANC:1,2010-09-02T02:06:00Z,28.1930,-82.7890,-0.001,1111122 
COMPS,ioos:station:USF.COMPS:ANC:1,2010-09-02T02:12:00Z,28.1930,-82.7890,-0.013,1111122 
COMPS,ioos:station:USF.COMPS:ANC:1,2010-09-02T02:18:00Z,28.1930,-82.7890,-0.022,1111122 
COMPS,ioos:station:USF.COMPS:ANC:1,2010-09-02T02:24:00Z,28.1930,-82.7890,-0.018,1111122 
COMPS,ioos:station:USF.COMPS:ANC:1,2010-09-02T02:30:00Z,28.1930,-82.7890,-0.022,1111122 
COMPS,ioos:station:USF.COMPS:ANC:1,2010-09-02T02:36:00Z,28.1930,-82.7890,-0.028,1111122 
COMPS,ioos:station:USF.COMPS:ANC:1,2010-09-02T02:42:00Z,28.1930,-82.7890,-0.035,1111122 
COMPS,ioos:station:USF.COMPS:ANC:1,2010-09-02T02:48:00Z,28.1930,-82.7890,-0.036,1111122 
COMPS,ioos:station:USF.COMPS:ANC:1,2010-09-02T02:54:00Z,28.1930,-82.7890,-0.036,1111122 
COMPS,ioos:station:USF.COMPS:ANC:1,2010-09-02T03:00:00Z,28.1930,-82.7890,-0.035,1111122 
COMPS,ioos:station:USF.COMPS:ANC:1,2010-09-02T03:06:00Z,28.1930,-82.7890,-0.03,1111122 
COMPS,ioos:station:USF.COMPS:ANC:1,2010-09-02T03:12:00Z,28.1930,-82.7890,-0.031,1111122 
COMPS,ioos:station:USF.COMPS:ANC:1,2010-09-02T03:18:00Z,28.1930,-82.7890,-0.035,1111122 
COMPS,ioos:station:USF.COMPS:ANC:1,2010-09-02T03:24:00Z,28.1930,-82.7890,-0.034,1111122 
COMPS,ioos:station:USF.COMPS:ANC:1,2010-09-02T03:30:00Z,28.1930,-82.7890,-0.031,1111122 
COMPS,ioos:station:USF.COMPS:ANC:1,2010-09-02T03:36:00Z,28.1930,-82.7890,-0.034,1111122 
COMPS,ioos:station:USF.COMPS:ANC:1,2010-09-02T03:42:00Z,28.1930,-82.7890,-0.02,1111122 
COMPS,ioos:station:USF.COMPS:ANC:1,2010-09-02T03:48:00Z,28.1930,-82.7890,-0.011,1111122 
COMPS,ioos:station:USF.COMPS:ANC:1,2010-09-02T03:54:00Z,28.1930,-82.7890,-0.008,1111122 
COMPS,ioos:station:USF.COMPS:ANC:1,2010-09-02T04:00:00Z,28.1930,-82.7890,-0.008,1111122 
COMPS,ioos:station:USF.COMPS:ANC:1,2010-09-02T04:06:00Z,28.1930,-82.7890,-0.008,1111122 
COMPS,ioos:station:USF.COMPS:ANC:1,2010-09-02T04:12:00Z,28.1930,-82.7890,0.0,1114422 
COMPS,ioos:station:USF.COMPS:ANC:1,2010-09-02T04:18:00Z,28.1930,-82.7890,0.009,1111122 
COMPS,ioos:station:USF.COMPS:ANC:1,2010-09-02T04:24:00Z,28.1930,-82.7890,0.02,1111122 
COMPS,ioos:station:USF.COMPS:ANC:1,2010-09-02T04:30:00Z,28.1930,-82.7890,0.03,1111122 
COMPS,ioos:station:USF.COMPS:ANC:1,2010-09-02T04:36:00Z,28.1930,-82.7890,0.033,1111122 
COMPS,ioos:station:USF.COMPS:ANC:1,2010-09-02T04:42:00Z,28.1930,-82.7890,0.034,1111122 
COMPS,ioos:station:USF.COMPS:ANC:1,2010-09-02T04:48:00Z,28.1930,-82.7890,0.035,1111122 
COMPS,ioos:station:USF.COMPS:ANC:1,2010-09-02T04:54:00Z,28.1930,-82.7890,0.04,1111122 
COMPS,ioos:station:USF.COMPS:ANC:1,2010-09-02T05:00:00Z,28.1930,-82.7890,0.051,1111122 
COMPS,ioos:station:USF.COMPS:ANC:1,2010-09-02T05:06:00Z,28.1930,-82.7890,0.067,1111122 
COMPS,ioos:station:USF.COMPS:ANC:1,2010-09-02T05:12:00Z,28.1930,-82.7890,0.075,1111122 
COMPS,ioos:station:USF.COMPS:ANC:1,2010-09-02T05:18:00Z,28.1930,-82.7890,0.083,1111122 
COMPS,ioos:station:USF.COMPS:ANC:1,2010-09-02T05:24:00Z,28.1930,-82.7890,0.092,1111122 
COMPS,ioos:station:USF.COMPS:ANC:1,2010-09-02T05:30:00Z,28.1930,-82.7890,0.105,1111122 
COMPS,ioos:station:USF.COMPS:ANC:1,2010-09-02T05:36:00Z,28.1930,-82.7890,0.113,1111122 
COMPS,ioos:station:USF.COMPS:ANC:1,2010-09-02T05:42:00Z,28.1930,-82.7890,0.134,1111122 
COMPS,ioos:station:USF.COMPS:ANC:1,2010-09-02T05:48:00Z,28.1930,-82.7890,0.152,1111122 
COMPS,ioos:station:USF.COMPS:ANC:1,2010-09-02T05:54:00Z,28.1930,-82.7890,0.153,1111122 
COMPS,ioos:station:USF.COMPS:ANC:1,2010-09-02T06:00:00Z,28.1930,-82.7890,0.152,1111122 
COMPS,ioos:station:USF.COMPS:ANC:1,2010-09-02T06:06:00Z,28.1930,-82.7890,0.159,1111122 
COMPS,ioos:station:USF.COMPS:ANC:1,2010-09-02T06:12:00Z,28.1930,-82.7890,0.172,1111122 
COMPS,ioos:station:USF.COMPS:ANC:1,2010-09-02T06:18:00Z,28.1930,-82.7890,0.189,1111122 
COMPS,ioos:station:USF.COMPS:ANC:1,2010-09-02T06:24:00Z,28.1930,-82.7890,0.202,1111122 
COMPS,ioos:station:USF.COMPS:ANC:1,2010-09-02T06:30:00Z,28.1930,-82.7890,0.205,1111122 
COMPS,ioos:station:USF.COMPS:ANC:1,2010-09-02T06:36:00Z,28.1930,-82.7890,0.21,1111122 
COMPS,ioos:station:USF.COMPS:ANC:1,2010-09-02T06:42:00Z,28.1930,-82.7890,0.217,1111122 
COMPS,ioos:station:USF.COMPS:ANC:1,2010-09-02T06:48:00Z,28.1930,-82.7890,0.228,1111122 
COMPS,ioos:station:USF.COMPS:ANC:1,2010-09-02T06:54:00Z,28.1930,-82.7890,0.239,1111122 
COMPS,ioos:station:USF.COMPS:ANC:1,2010-09-02T07:00:00Z,28.1930,-82.7890,0.25,1111122 
COMPS,ioos:station:USF.COMPS:ANC:1,2010-09-02T07:06:00Z,28.1930,-82.7890,0.255,1111122 
COMPS,ioos:station:USF.COMPS:ANC:1,2010-09-02T07:12:00Z,28.1930,-82.7890,0.268,1111122 
COMPS,ioos:station:USF.COMPS:ANC:1,2010-09-02T07:18:00Z,28.1930,-82.7890,0.284,1111122 
COMPS,ioos:station:USF.COMPS:ANC:1,2010-09-02T07:24:00Z,28.1930,-82.7890,0.29,1111122 
COMPS,ioos:station:USF.COMPS:ANC:1,2010-09-02T07:30:00Z,28.1930,-82.7890,0.303,1111122 
COMPS,ioos:station:USF.COMPS:ANC:1,2010-09-02T07:36:00Z,28.1930,-82.7890,0.312,1111122 
COMPS,ioos:station:USF.COMPS:ANC:1,2010-09-02T07:42:00Z,28.1930,-82.7890,0.319,1111122 
COMPS,ioos:station:USF.COMPS:ANC:1,2010-09-02T07:48:00Z,28.1930,-82.7890,0.331,1111122 
COMPS,ioos:station:USF.COMPS:ANC:1,2010-09-02T07:54:00Z,28.1930,-82.7890,0.351,1111122 
COMPS,ioos:station:USF.COMPS:ANC:1,2010-09-02T08:00:00Z,28.1930,-82.7890,0.355,1111122 
COMPS,ioos:station:USF.COMPS:ANC:1,2010-09-02T08:06:00Z,28.1930,-82.7890,0.352,1111122 
COMPS,ioos:station:USF.COMPS:ANC:1,2010-09-02T08:12:00Z,28.1930,-82.7890,0.361,1111122 
COMPS,ioos:station:USF.COMPS:ANC:1,2010-09-02T08:18:00Z,28.1930,-82.7890,0.368,1111122 
COMPS,ioos:station:USF.COMPS:ANC:1,2010-09-02T08:24:00Z,28.1930,-82.7890,0.365,1111122 
COMPS,ioos:station:USF.COMPS:ANC:1,2010-09-02T08:30:00Z,28.1930,-82.7890,0.376,1111122 
COMPS,ioos:station:USF.COMPS:ANC:1,2010-09-02T08:36:00Z,28.1930,-82.7890,0.396,1111122 
COMPS,ioos:station:USF.COMPS:ANC:1,2010-09-02T08:42:00Z,28.1930,-82.7890,0.407,1111122 
COMPS,ioos:station:USF.COMPS:ANC:1,2010-09-02T08:48:00Z,28.1930,-82.7890,0.406,1111122 
COMPS,ioos:station:USF.COMPS:ANC:1,2010-09-02T08:54:00Z,28.1930,-82.7890,0.412,1111122 
COMPS,ioos:station:USF.COMPS:ANC:1,2010-09-02T09:00:00Z,28.1930,-82.7890,0.415,1111122 
COMPS,ioos:station:USF.COMPS:ANC:1,2010-09-02T09:06:00Z,28.1930,-82.7890,0.414,1111122 
COMPS,ioos:station:USF.COMPS:ANC:1,2010-09-02T09:12:00Z,28.1930,-82.7890,0.408,1111122 
COMPS,ioos:station:USF.COMPS:ANC:1,2010-09-02T09:18:00Z,28.1930,-82.7890,0.435,1111122 
COMPS,ioos:station:USF.COMPS:ANC:1,2010-09-02T09:24:00Z,28.1930,-82.7890,0.437,1111122 
COMPS,ioos:station:USF.COMPS:ANC:1,2010-09-02T09:30:00Z,28.1930,-82.7890,0.439,1111122 
COMPS,ioos:station:USF.COMPS:ANC:1,2010-09-02T09:36:00Z,28.1930,-82.7890,0.426,1111122 
COMPS,ioos:station:USF.COMPS:ANC:1,2010-09-02T09:42:00Z,28.1930,-82.7890,0.451,1111122 
COMPS,ioos:station:USF.COMPS:ANC:1,2010-09-02T09:48:00Z,28.1930,-82.7890,0.459,1111122 
COMPS,ioos:station:USF.COMPS:ANC:1,2010-09-02T09:54:00Z,28.1930,-82.7890,0.468,1111122 
COMPS,ioos:station:USF.COMPS:ANC:1,2010-09-02T10:00:00Z,28.1930,-82.7890,0.464,1111122 
COMPS,ioos:station:USF.COMPS:ANC:1,2010-09-02T10:06:00Z,28.1930,-82.7890,0.457,1111122 
COMPS,ioos:station:USF.COMPS:ANC:1,2010-09-02T10:12:00Z,28.1930,-82.7890,0.453,1111122 
COMPS,ioos:station:USF.COMPS:ANC:1,2010-09-02T10:18:00Z,28.1930,-82.7890,0.46,1111122 
COMPS,ioos:station:USF.COMPS:ANC:1,2010-09-02T10:24:00Z,28.1930,-82.7890,0.473,1111122 
COMPS,ioos:station:USF.COMPS:ANC:1,2010-09-02T10:30:00Z,28.1930,-82.7890,0.459,1111122 
COMPS,ioos:station:USF.COMPS:ANC:1,2010-09-02T10:36:00Z,28.1930,-82.7890,0.455,1111122 
COMPS,ioos:station:USF.COMPS:ANC:1,2010-09-02T10:42:00Z,28.1930,-82.7890,0.449,1111122 
COMPS,ioos:station:USF.COMPS:ANC:1,2010-09-02T10:48:00Z,28.1930,-82.7890,0.443,1111122 
COMPS,ioos:station:USF.COMPS:ANC:1,2010-09-02T10:54:00Z,28.1930,-82.7890,0.419,1111122 
COMPS,ioos:station:USF.COMPS:ANC:1,2010-09-02T11:00:00Z,28.1930,-82.7890,0.413,1111122 
COMPS,ioos:station:USF.COMPS:ANC:1,2010-09-02T11:06:00Z,28.1930,-82.7890,0.423,1111122 
COMPS,ioos:station:USF.COMPS:ANC:1,2010-09-02T11:12:00Z,28.1930,-82.7890,0.417,1111122 
COMPS,ioos:station:USF.COMPS:ANC:1,2010-09-02T11:18:00Z,28.1930,-82.7890,0.408,1111122 
COMPS,ioos:station:USF.COMPS:ANC:1,2010-09-02T11:24:00Z,28.1930,-82.7890,0.413,1111122 
COMPS,ioos:station:USF.COMPS:ANC:1,2010-09-02T11:30:00Z,28.1930,-82.7890,0.414,1111122 
COMPS,ioos:station:USF.COMPS:ANC:1,2010-09-02T11:36:00Z,28.1930,-82.7890,0.402,1111122 
COMPS,ioos:station:USF.COMPS:ANC:1,2010-09-02T11:42:00Z,28.1930,-82.7890,0.39,1111122 
COMPS,ioos:station:USF.COMPS:ANC:1,2010-09-02T11:48:00Z,28.1930,-82.7890,0.384,1111122 
COMPS,ioos:station:USF.COMPS:ANC:1,2010-09-02T11:54:00Z,28.1930,-82.7890,0.381,1111122 
COMPS,ioos:station:USF.COMPS:ANC:1,2010-09-02T12:00:00Z,28.1930,-82.7890,0.38,1111122 
COMPS,ioos:station:USF.COMPS:ANC:1,2010-09-02T12:06:00Z,28.1930,-82.7890,0.367,1111122 
COMPS,ioos:station:USF.COMPS:ANC:1,2010-09-02T12:12:00Z,28.1930,-82.7890,0.36,1111122 
COMPS,ioos:station:USF.COMPS:ANC:1,2010-09-02T12:18:00Z,28.1930,-82.7890,0.361,1111122 
COMPS,ioos:station:USF.COMPS:ANC:1,2010-09-02T12:24:00Z,28.1930,-82.7890,0.346,1111122 
COMPS,ioos:station:USF.COMPS:ANC:1,2010-09-02T12:30:00Z,28.1930,-82.7890,0.327,1111122 
COMPS,ioos:station:USF.COMPS:ANC:1,2010-09-02T12:36:00Z,28.1930,-82.7890,0.32,1111122 
COMPS,ioos:station:USF.COMPS:ANC:1,2010-09-02T12:42:00Z,28.1930,-82.7890,0.318,1111122 
COMPS,ioos:station:USF.COMPS:ANC:1,2010-09-02T12:48:00Z,28.1930,-82.7890,0.305,1111122 
COMPS,ioos:station:USF.COMPS:ANC:1,2010-09-02T12:54:00Z,28.1930,-82.7890,0.291,1111122 
COMPS,ioos:station:USF.COMPS:ANC:1,2010-09-02T13:00:00Z,28.1930,-82.7890,0.281,1111122 
COMPS,ioos:station:USF.COMPS:ANC:1,2010-09-02T13:06:00Z,28.1930,-82.7890,0.268,1111122 
COMPS,ioos:station:USF.COMPS:ANC:1,2010-09-02T13:12:00Z,28.1930,-82.7890,0.247,1111122 
COMPS,ioos:station:USF.COMPS:ANC:1,2010-09-02T13:18:00Z,28.1930,-82.7890,0.227,1111122 
COMPS,ioos:station:USF.COMPS:ANC:1,2010-09-02T13:24:00Z,28.1930,-82.7890,0.216,1111122 
COMPS,ioos:station:USF.COMPS:ANC:1,2010-09-02T13:30:00Z,28.1930,-82.7890,0.198,1111122 
COMPS,ioos:station:USF.COMPS:ANC:1,2010-09-02T13:36:00Z,28.1930,-82.7890,0.179,1111122 
COMPS,ioos:station:USF.COMPS:ANC:1,2010-09-02T13:42:00Z,28.1930,-82.7890,0.165,1111122 
COMPS,ioos:station:USF.COMPS:ANC:1,2010-09-02T13:48:00Z,28.1930,-82.7890,0.155,1111122 
COMPS,ioos:station:USF.COMPS:ANC:1,2010-09-02T13:54:00Z,28.1930,-82.7890,0.147,1111122 
COMPS,ioos:station:USF.COMPS:ANC:1,2010-09-02T14:00:00Z,28.1930,-82.7890,0.138,1111122 
COMPS,ioos:station:USF.COMPS:ANC:1,2010-09-02T14:06:00Z,28.1930,-82.7890,0.124,1111122 
COMPS,ioos:station:USF.COMPS:ANC:1,2010-09-02T14:12:00Z,28.1930,-82.7890,0.104,1111122 
COMPS,ioos:station:USF.COMPS:ANC:1,2010-09-02T14:18:00Z,28.1930,-82.7890,0.089,1111122 
COMPS,ioos:station:USF.COMPS:ANC:1,2010-09-02T14:24:00Z,28.1930,-82.7890,0.077,1111122 
COMPS,ioos:station:USF.COMPS:ANC:1,2010-09-02T14:30:00Z,28.1930,-82.7890,0.066,1111122 
COMPS,ioos:station:USF.COMPS:ANC:1,2010-09-02T14:36:00Z,28.1930,-82.7890,0.05,1111122 
COMPS,ioos:station:USF.COMPS:ANC:1,2010-09-02T14:42:00Z,28.1930,-82.7890,0.027,1111122 
COMPS,ioos:station:USF.COMPS:ANC:1,2010-09-02T14:48:00Z,28.1930,-82.7890,0.013,1111122 
COMPS,ioos:station:USF.COMPS:ANC:1,2010-09-02T14:54:00Z,28.1930,-82.7890,-0.003,1111122 
COMPS,ioos:station:USF.COMPS:ANC:1,2010-09-02T15:00:00Z,28.1930,-82.7890,-0.02,1111122 
COMPS,ioos:station:USF.COMPS:ANC:1,2010-09-02T15:06:00Z,28.1930,-82.7890,-0.032,1111122 
COMPS,ioos:station:USF.COMPS:ANC:1,2010-09-02T15:12:00Z,28.1930,-82.7890,-0.051,1111122 
COMPS,ioos:station:USF.COMPS:ANC:1,2010-09-02T15:18:00Z,28.1930,-82.7890,-0.074,1111122 
COMPS,ioos:station:USF.COMPS:ANC:1,2010-09-02T15:24:00Z,28.1930,-82.7890,-0.086,1111122 
COMPS,ioos:station:USF.COMPS:ANC:1,2010-09-02T15:30:00Z,28.1930,-82.7890,-0.103,1111122 
COMPS,ioos:station:USF.COMPS:ANC:1,2010-09-02T15:36:00Z,28.1930,-82.7890,-0.108,1111122 
COMPS,ioos:station:USF.COMPS:ANC:1,2010-09-02T15:42:00Z,28.1930,-82.7890,-0.126,1111122 
COMPS,ioos:station:USF.COMPS:ANC:1,2010-09-02T15:48:00Z,28.1930,-82.7890,-0.142,1111122 
COMPS,ioos:station:USF.COMPS:ANC:1,2010-09-02T15:54:00Z,28.1930,-82.7890,-0.159,1111122 
COMPS,ioos:station:USF.COMPS:ANC:1,2010-09-02T16:00:00Z,28.1930,-82.7890,-0.171,1111122 
COMPS,ioos:station:USF.COMPS:ANC:1,2010-09-02T16:06:00Z,28.1930,-82.7890,-0.182,1111122 
COMPS,ioos:station:USF.COMPS:ANC:1,2010-09-02T16:12:00Z,28.1930,-82.7890,-0.19,1111122 
COMPS,ioos:station:USF.COMPS:ANC:1,2010-09-02T16:18:00Z,28.1930,-82.7890,-0.196,1111122 
COMPS,ioos:station:USF.COMPS:ANC:1,2010-09-02T16:24:00Z,28.1930,-82.7890,-0.201,1111122 
COMPS,ioos:station:USF.COMPS:ANC:1,2010-09-02T16:30:00Z,28.1930,-82.7890,-0.214,1111122 
COMPS,ioos:station:USF.COMPS:ANC:1,2010-09-02T16:36:00Z,28.1930,-82.7890,-0.227,1111122 
COMPS,ioos:station:USF.COMPS:ANC:1,2010-09-02T16:42:00Z,28.1930,-82.7890,-0.235,1111122 
COMPS,ioos:station:USF.COMPS:ANC:1,2010-09-02T16:48:00Z,28.1930,-82.7890,-0.244,1111122 
COMPS,ioos:station:USF.COMPS:ANC:1,2010-09-02T16:54:00Z,28.1930,-82.7890,-0.254,1111122 